THOR ABLESTAR DEB, 657

Orbit data source: Space-Track

THOR ABLESTAR DEB, 657 is space debris in LEO originally from a launch on Thu, 29 Jun 1961 UTC launched from the Air Force Eastern Test Range (AFETR). Debris objects in space refer to the collection of defunct objects orbiting the Earth. Examples of debris include non-operational satellites, rocket bodies, and fragments generated from explosions, collisions, or faulty payload assembly.

Loading next visibility...
THOR ABLESTAR DEB details
Identifier
657, 1961-015HJ
Orbit
LEO
Last TLE update14 hours ago
Origin
Flag of USUSAF SSD (US)
ManufacturerUnknown
MissionSpacecraft
Bus & MotorUnknown
MassUnknown
Launch date (UTC)
1961-06-29 (64 years ago)
Launch vehicleUnknown
Launch site
Air Force Eastern Test Range (AFETR)
Object type
Payload
Rocket body
Debris
Shape & HBRUnknown
Radar Cross SectionSmall (<0.1 m²)

Expand to show TLE details & history

TLE from 14 hours ago
0 THOR ABLESTAR DEB
1 00657U 61015HJ  25024.43447625  .00000416  00000-0  10145-2 0  9993
2 00657  66.2188  30.2206 0341816 285.4045 231.0306 13.11553956 37896
Epoch: 2025-01-24T10:25Z
Definitive object data (Epoch: 2025-01-24T10:25:38.747Z)
Latitude24.16143°
Longitude-81.53319°
Altitude1,387.623 km
Speed7.088 km/s
True Right ascension13h 15m 30s
True Declination24° 02' 37"
Sunlit
Object was in daylight at TLE epoch
Visualization TLE readout
Latitude39.4092°
Longitude129.65063°
Altitude1,339.597 km
Speed7.136 km/s
Apparent Right ascension06h 51m 43s
Apparent Declination18° 16' 44"
Sunlit
Object is in daylight
Visualization observer readout
Local Sidereal Time01:46:30
Azimuth84.041° E
Elevation21.944°
Doppler factor1
Orbital elements
Apogee altitude1,475.24 km
Perigee altitude956.103 km
Semi-major axis7,593.808 km
Eccentricity0.0341816
Inclination66.2188°
RAAN30.2206°
Arg. of periapsis285.4045°
True anomaly228.06635°
Mean anomaly231.0306°
Eccentric anomaly229.54048°
Mean motion3.27985 °/min
BSTAR0.0010145
Orbital period109.76 mins
Loading maneuver chart data...

THOR ABLESTAR DEB Visibility forecast

Observer location: undefined°, undefined

Span
Click to sort rows by Start time (UTC) header in descending order
Start Az.
Max El. time (UTC)
Max El. Az.
Max El.
End time (UTC)
End Az.
4 mins2025-01-25 00:28:40.688Z84.292° E2025-01-25 00:28:40.688Z84.292° E20.424°2025-01-25 00:32:40.688Z55.927° ENE
15 mins2025-01-25 02:12:40.688Z217.284° SW2025-01-25 02:19:40.688Z332.207° NNW43.768°2025-01-25 02:27:40.688Z27.593° NE
10 mins2025-01-25 04:09:40.688Z287.766° WNW2025-01-25 04:13:40.688Z322.105° NNW20.908°2025-01-25 04:19:40.688Z9.548° NNE
8 mins2025-01-25 08:05:40.688Z358.598° N2025-01-25 08:09:40.688Z27.899° NE15.534°2025-01-25 08:13:40.688Z56.302° ENE
15 mins2025-01-25 09:57:40.688Z341.063° N2025-01-25 10:04:40.688Z41.091° NE35.755°2025-01-25 10:12:40.688Z120.121° SE
14 mins2025-01-25 11:51:40.688Z316.02° NNW2025-01-25 11:58:40.688Z246.513° WSW36.329°2025-01-25 12:05:40.688Z181.997° SSW
9 mins2025-01-26 00:10:40.688Z137.435° SSE2025-01-26 00:14:40.688Z99.11° ESE21.66°2025-01-26 00:19:40.688Z58.372° ENE
|